Tracking 34138 objects as of 17-May-2026
HD Live streaming from Space Station
objects crossing your sky now

COSMOS 1275 DEB

Track COSMOS 1275 DEB now!
10-day predictions


NORAD ID: 15766
Int'l Code: 1981-053KE
Perigee: 738.7 km
Apogee: 745.4 km
Inclination: 82.9 °
Period: 99.5 minutes
Semi major axis: 7113 km
RCS: 0.0112 m2 (small)
Launch date: June 4, 1981
Source: Commonwealth of Independent States (former USSR) (CIS)
Launch site: PLESETSK MISSILE AND SPACE COMPLEX (PKMTR)

Note: This is SATELLITE DEBRIS
Your satellite tracking list
Your tracking list is empty




NASA's NSSDC Master Catalog

Two Line Element Set (TLE):
1 15766U 81053KB  26136.50637095  .00003608  00000-0  98402-3 0  9998
2 15766  82.9331 320.3850 0004746 318.3336  41.7498 14.47166843109560
Source of the keplerian elements: AFSPC